STARLINK-2409, 47824

Orbit data source: Space-Track

STARLINK-2409, 47824 is a payload satellite owned by SpaceX/Seattle (US) in LEO that was launched on Thu, 11 Mar 2021 UTC via an FALCON 9 launch vehicle from the Air Force Eastern Test Range (AFETR). Payload-class satellites include a variety of spacecraft equipped with specific instruments for various scientific and technological missions. These include communications satellites like Starlink; space stations such as the ISS; scientific satellites like the Hubble; Earth observation satellites from companies like Planet Labs, Umbra, and HawkEye 360; GPS; miniature CubeSats for education and research; and military/defense satellites.

Loading next visibility...
Identifier
47824, 2021-018AP
Orbit
LEO
Country
Flag of USUS
Related business
Manufacturer
SpaceX/Seattle
Mission
Operational Commercial Communications
Bus & Motor
STARLINK, Unknown motor
Mass
260 kg wet, ~248 kg dry
Launch date (UTC)
2021-03-11 (5 years ago)
Launch vehicle
FALCON 9
Launch site
Air Force Eastern Test Range (AFETR)
Object type
Payload
Rocket body
Debris
Shape & HBR
Box + 1 Pan, 10.1 m
Radar Cross Section
13.562 m², Large (>1 m²)

Expand to show TLE details & history
Last TLE update: 1 day ago

TLE from 1 day ago
0 STARLINK-2409
1 47824U 21018AP  25291.93957844  .00003961  00000-0  28462-3 0  9999
2 47824  53.0544 167.9588 0001351  95.7907 264.3236 15.06408018255224
Epoch: 2025-10-18T22:32Z
TLE epoch observation values (Epoch: 2025-10-18T22:32:59.577Z)
Latitude
-0.00001°
Longitude
162.04716°
Altitude
548.159 km
Speed
7.589 km/s
True Right ascension
11h 11m 50s
True Declination
0° 00' 00"
Sunlit
Object was in daylight at epoch
Visualization orbit readout
Latitude
Unknown
Longitude
Unknown
Altitude
Unknown
Speed
Unknown
Apparent Right ascension
Unknown
Apparent Declination
Unknown
Sunlit
N/A
Visualization observer readout
Local Sidereal Time
18:58:48
Azimuth
Unknown
Elevation
Unknown
Doppler factor
Unknown
Orbital elements
Apogee altitude
548.393 km
Perigee altitude
546.522 km
Semi-major axis
6,925.595 km
Eccentricity
0.00014
Inclination
53.0544°
RAAN
167.9588°
Arg. of periapsis
95.7907°
True anomaly
264.30819°
Mean anomaly
264.3236°
Eccentric anomaly
264.3159°
Mean motion
3.7658 °/min
Orbital period
95.6 mins
BSTAR
0.00028462
Loading maneuver chart data...
Computing Atmospheric mass density...

Documentation

Showing up to 5 results
|